ONEWEB-0066, 45424

Orbit data source: Space-Track

ONEWEB-0066, 45424 is a payload satellite owned by One Web (UK) in LEO that was launched on Sat, 21 Mar 2020 UTC via a SOYUZ-2-1B launch vehicle from the Tyuratam Missile And Space Complex (TTMTR). Payload-class satellites include a variety of spacecraft equipped with specific instruments for various scientific and technological missions. These include communications satellites like Starlink; space stations such as the ISS; scientific satellites like the Hubble; Earth observation satellites from companies like Planet Labs, Umbra, and HawkEye 360; GPS; miniature CubeSats for education and research; and military/defense satellites.

Loading next visibility...
Identifier
45424, 2020-020A
Orbit
LEO
Country
Flag of UKUK
Related business
Manufacturer
One Web
Mission
Operational Commercial Communications
Bus & Motor
ARROW, Unknown motor
Mass
148 kg wet, ~140 kg dry
Launch date (UTC)
2020-03-21 (6 years ago)
Launch vehicle
SOYUZ-2-1B
Launch site
Tyuratam Missile And Space Complex (TTMTR)
Object type
Payload
Rocket body
Debris
Shape & HBR
Trap Box + 2 Pan, 6.7 m
Radar Cross Section
3.464 m², Large (>1 m²)

Expand to show TLE details & history
Last TLE update: 21 hours ago

TLE from 21 hours ago
0 ONEWEB-0066
1 45424U 20020A   25291.13333684  .00000358  00000-0  97324-3 0  9997
2 45424  87.8831  69.2660 0001335  99.0727 261.0552 13.11419437270959
Epoch: 2025-10-18T03:12Z
TLE epoch observation values (Epoch: 2025-10-18T03:12:00.302Z)
Latitude
-0.00005°
Longitude
-5.60399°
Altitude
1,220.72 km
Speed
7.244 km/s
True Right ascension
04h 37m 03s
True Declination
0° 00' 00"
Sunlit
Object was in full shadow at epoch
Visualization orbit readout
Latitude
Unknown
Longitude
Unknown
Altitude
Unknown
Speed
Unknown
Apparent Right ascension
Unknown
Apparent Declination
Unknown
Sunlit
N/A
Visualization observer readout
Local Sidereal Time
19:23:40
Azimuth
Unknown
Elevation
Unknown
Doppler factor
Unknown
Orbital elements
Apogee altitude
1,215.805 km
Perigee altitude
1,213.778 km
Semi-major axis
7,592.928 km
Eccentricity
0.00013
Inclination
87.8831°
RAAN
69.266°
Arg. of periapsis
99.0727°
True anomaly
261.04009°
Mean anomaly
261.0552°
Eccentric anomaly
261.04764°
Mean motion
3.28042 °/min
Orbital period
109.74 mins
BSTAR
0.00097324
Loading maneuver chart data...
Computing Atmospheric mass density...
Loading historical data...
Loading historical data...
Loading historical data...
Loading historical data...
Loading historical data...
Loading historical data...
Loading historical data...

Documentation

Showing up to 5 results
|